Location: Endfield
(51.6667°N, 0.0667°W)
Time: 05:07:30
(UTC+00:00)

Cosmos 2112 Rocket - Pass Details

Date: 19 May 2024
Orbit: 755 x 784 km, 74.0° (Epoch: 19 June)

Event Time Altitude Azimuth Distance (km) Brightness Sun altitude
Rises 20:42:47 0° 186° (S) 3,259 6.9 -6.8°
Reaches altitude 10° 20:45:13 10° 181° (S) 2,332 6.1 -7.0°
Maximum altitude 20:50:19 50° 107° (ESE) 988 4.3 -7.6°
Drops below altitude 10° 20:55:26 10° 33° (NNE) 2,333 6.7 -8.1°
Sets 20:57:52 0° 29° (NNE) 3,260 7.5 -8.4°
